Temp
88 88 87 87 87 88 87 86 87 86 86 87 87 86 86 86 86 86 86 86 85 85 84 84 84 84 84 84 83 82 82 82 83 83 82 82 82 81 81 81 81 80
87 88 88 88 87 88 87 87 86 86 86 86 87 87 87 86 86 86 85 85 85 84 84 84 83 83 83 84 83 82 82 82 81 84 81 81 81 81 81 81 81 81
88 87 87 87 88 87 88 87 87 87 87 87 87 87 87 87 86 86 85 85 84 85 84 84 83 83 83 83 83 82 82 81 81 83 82 80 82 81 81 83 82 82
87 87 88 88 88 87 87 87 87 86 87 87 87 87 87 87 86 85 85 84 84 83 83 83 83 83 82 82 82 82 82 82 82 82 81 81 81 81 81 82 82 82
87 87 88 88 88 88 87 87 87 87 87 86 87 86 85 85 85 85 84 83 83 84 83 82 82 81 80 80 80 79 81 81 81 81 80 80 81 81 82 81 81 80
87 87 87 87 88 87 86 86 86 86 86 86 85 86 85 85 84 84 84 84 84 83 82 82 81 81 81 79 78 78 79 80 82 81 80 80 81 82 82 81 80 79
87 87 87 88 87 87 86 86 86 85 86 87 85 84 85 85 84 83 83 83 82 79 79 79 79 78 78 79 78 78 79 80 81 81 80 80 81 81 82 81 80 79
88 88 88 87 87 86 85 85 85 85 85 85 85 85 84 85 83 82 81 80 80 77 77 77 77 77 79 79 77 77 79 81 81 80 80 79 80 79 79 80 80 78
88 87 87 86 86 86 85 85 87 85 85 85 86 86 84 84 83 82 81 80 79 78 77 76 76 77 77 78 77 77 78 80 81 80 79 79 79 79 80 80 79 79
87 87 87 88 87 86 84 86 88 86 85 85 86 86 83 82 82 81 80 79 79 79 78 77 76 76 76 77 77 77 79 79 79 79 79 80 80 80 80 80 80 79
87 87 87 87 87 87 86 88 90 89 87 86 86 85 84 83 82 82 80 79 78 77 77 77 76 76 75 77 77 78 79 80 79 79 79 80 80 80 79 79 79 79
86 87 87 87 87 87 87 88 89 87 87 87 87 86 84 84 81 80 79 78 77 78 78 77 77 76 75 77 78 79 79 79 78 79 80 81 81 81 80 80 80 80
86 86 87 87 86 86 87 88 89 89 87 86 86 86 85 85 83 80 78 77 76 77 77 78 78 77 76 77 78 79 78 77 78 80 81 81 81 81 82 82 82 82
86 87 87 87 87 85 86 87 88 86 85 85 85 85 85 84 83 80 78 77 76 77 78 78 78 77 76 76 78 79 79 79 80 80 80 80 81 82 83 84 84 84
86 87 87 87 86 85 85 85 86 83 81 82 81 82 83 84 83 80 76 75 76 76 77 78 77 76 76 77 77 78 80 80 80 79 79 79 81 82 83 83 83 84
87 86 86 86 84 83 84 84 82 77 78 79 78 80 80 81 80 78 78 76 75 76 76 76 76 76 73 69 72 79 80 79 79 79 79 80 80 81 82 83 83 84
86 86 85 85 84 83 83 82 79 76 76 78 79 79 79 78 78 77 77 77 77 77 76 75 76 76 69 66 67 68 76 78 79 80 81 81 81 80 80 81 83 83
86 85 84 83 83 82 83 82 80 78 77 78 78 77 77 77 75 74 74 76 77 78 77 76 76 70 65 65 65 65 67 75 80 81 82 82 81 81 81 81 82 83
86 85 84 83 82 82 83 81 80 78 77 77 77 78 77 75 75 75 75 77 77 76 77 78 79 68 65 64 64 64 64 69 79 81 82 82 82 81 81 81 81 80
85 85 84 82 82 81 80 79 78 78 77 76 77 77 76 75 74 75 76 76 76 76 76 78 79 70 64 63 63 62 64 67 78 80 82 82 81 82 82 80 79 79
84 84 84 82 80 79 79 78 78 77 76 75 75 75 76 74 73 74 75 75 76 77 76 76 78 67 62 62 61 61 62 66 77 79 81 81 81 81 80 80 79 79
84 84 83 81 79 78 78 77 77 76 75 74 72 73 75 75 75 76 75 75 75 77 78 77 81 67 63 61 60 60 62 73 77 78 79 80 80 80 80 79 79 78
84 84 83 80 79 78 77 76 75 75 74 73 71 71 72 72 73 73 74 76 76 76 77 78 82 70 60 61 60 59 64 76 77 79 79 80 80 80 78 74 72 75
85 85 82 80 79 78 77 76 76 75 74 72 71 71 71 73 73 74 75 75 76 76 81 80 82 72 58 59 59 58 66 77 78 79 79 78 78 77 75 74 74 71
85 84 83 81 79 78 77 77 76 75 74 72 72 72 72 73 73 74 76 78 82 81 76 80 83 76 58 59 57 57 66 77 79 79 77 76 74 74 74 72 71 71
84 83 82 81 80 79 78 78 77 76 75 73 73 73 74 75 76 76 77 79 82 83 84 82 81 82 71 56 56 55 59 76 79 76 75 72 71 70 71 72 71 73
MSLP
1012.11 1012.35 1012.71 1013.07 1013.31 1013.51 1013.75 1014.11 1014.31 1014.63 1014.87 1014.99 1015.35 1015.51 1015.71 1015.79 1015.83 1016.11 1016.35 1016.51 1016.71 1016.95 1017.07 1017.23 1017.31 1017.51 1017.63 1017.83 1017.99 1018.19 1018.35 1018.43 1018.39 1018.35 1018.51 1018.59 1018.67 1018.79 1018.91 1018.91 1018.91 1018.95
1011.79 1012.03 1012.31 1012.59 1012.95 1013.11 1013.31 1013.55 1014.03 1014.31 1014.63 1014.79 1014.91 1015.07 1015.27 1015.55 1015.75 1015.95 1016.27 1016.55 1016.71 1016.87 1016.95 1017.15 1017.31 1017.51 1017.63 1017.71 1017.95 1018.19 1018.35 1018.35 1018.51 1018.19 1018.51 1018.59 1018.59 1018.55 1018.71 1018.71 1018.79 1018.71
1011.47 1011.83 1012.11 1012.47 1012.71 1012.99 1013.15 1013.31 1013.67 1013.95 1014.27 1014.43 1014.55 1014.79 1015.11 1015.27 1015.63 1015.87 1016.11 1016.39 1016.59 1016.71 1016.91 1017.03 1017.23 1017.43 1017.59 1017.71 1017.87 1018.07 1018.23 1018.31 1018.43 1018.15 1018.31 1018.55 1018.43 1018.55 1018.51 1018.39 1018.43 1018.55
1011.19 1011.39 1011.67 1011.95 1012.15 1012.59 1012.79 1013.15 1013.47 1013.71 1013.87 1014.23 1014.43 1014.51 1014.79 1015.11 1015.43 1015.83 1016.03 1016.27 1016.51 1016.75 1016.87 1017.03 1017.11 1017.19 1017.39 1017.63 1017.83 1017.99 1017.99 1018.11 1018.03 1018.11 1018.31 1018.35 1018.39 1018.39 1018.39 1018.31 1018.35 1018.39
1010.87 1011.15 1011.31 1011.51 1011.75 1012.07 1012.39 1012.87 1013.19 1013.39 1013.63 1013.91 1014.19 1014.47 1014.87 1015.15 1015.47 1015.71 1016.03 1016.35 1016.47 1016.63 1016.79 1017.07 1017.19 1017.27 1017.35 1017.59 1017.79 1018.11 1017.99 1018.03 1017.95 1018.03 1018.23 1018.35 1018.23 1018.31 1018.27 1018.27 1018.39 1018.47
1010.39 1010.63 1010.91 1011.23 1011.47 1011.87 1012.27 1012.55 1012.79 1013.11 1013.51 1013.83 1014.07 1014.19 1014.59 1014.95 1015.35 1015.63 1015.91 1016.11 1016.19 1016.47 1016.75 1016.95 1017.23 1017.35 1017.27 1017.39 1017.59 1017.87 1017.87 1017.91 1017.71 1017.83 1018.11 1018.27 1018.15 1017.95 1018.03 1018.19 1018.35 1018.47
1010.11 1010.35 1010.63 1010.79 1011.19 1011.43 1011.91 1012.15 1012.43 1012.75 1012.99 1013.15 1013.51 1013.95 1014.11 1014.63 1015.11 1015.55 1015.75 1015.71 1015.71 1015.99 1016.43 1016.71 1016.95 1017.15 1017.15 1017.15 1017.47 1017.71 1017.59 1017.59 1017.55 1017.67 1017.99 1018.07 1018.03 1018.03 1017.95 1018.07 1018.23 1018.35
1009.55 1009.75 1010.11 1010.43 1010.87 1011.19 1011.55 1011.83 1012.15 1012.39 1012.59 1012.87 1013.39 1013.67 1013.95 1014.43 1014.79 1015.27 1015.47 1015.63 1015.83 1015.99 1015.87 1016.11 1016.47 1016.67 1016.91 1016.95 1017.19 1017.47 1017.47 1017.27 1017.39 1017.59 1017.83 1017.95 1017.91 1018.03 1017.95 1017.87 1017.91 1018.11
1009.11 1009.47 1009.75 1010.15 1010.55 1010.87 1011.23 1011.51 1011.83 1012.15 1012.39 1012.83 1013.15 1013.47 1013.75 1013.99 1014.35 1014.71 1015.07 1015.23 1015.55 1015.67 1015.67 1015.75 1016.03 1016.35 1016.59 1016.87 1016.99 1017.11 1017.23 1017.11 1017.07 1017.31 1017.59 1017.71 1017.75 1017.75 1017.71 1017.59 1017.71 1017.75
1008.79 1008.99 1009.39 1009.71 1010.11 1010.35 1010.83 1010.99 1011.11 1011.59 1011.95 1012.35 1012.67 1012.95 1013.47 1013.71 1013.95 1014.31 1014.67 1014.99 1015.23 1015.39 1015.55 1015.63 1015.71 1015.79 1016.11 1016.55 1016.87 1016.91 1016.87 1016.91 1016.95 1017.03 1017.19 1017.27 1017.35 1017.39 1017.35 1017.39 1017.43 1017.47
1008.35 1008.59 1008.95 1009.19 1009.43 1009.67 1010.03 1010.31 1010.51 1010.87 1011.39 1011.87 1012.19 1012.59 1012.91 1013.27 1013.59 1013.79 1014.23 1014.63 1014.95 1015.15 1015.35 1015.47 1015.51 1015.43 1015.59 1016.03 1016.47 1016.63 1016.55 1016.47 1016.55 1016.67 1016.75 1016.87 1016.91 1016.99 1017.07 1017.15 1017.15 1017.15
1007.87 1008.11 1008.35 1008.59 1008.83 1009.19 1009.55 1009.75 1010.03 1010.39 1010.75 1011.07 1011.43 1011.99 1012.47 1012.75 1013.15 1013.43 1013.75 1014.11 1014.31 1014.59 1014.87 1015.15 1015.27 1015.31 1015.31 1015.51 1015.99 1016.27 1016.31 1016.19 1016.23 1016.31 1016.35 1016.43 1016.47 1016.59 1016.71 1016.79 1016.83 1016.79
1007.39 1007.59 1007.75 1008.03 1008.43 1008.83 1009.07 1009.31 1009.55 1009.91 1010.35 1010.79 1011.07 1011.43 1011.91 1012.27 1012.59 1012.99 1013.23 1013.55 1013.75 1013.91 1014.35 1014.75 1014.95 1015.07 1015.23 1015.35 1015.63 1015.91 1016.11 1016.19 1016.19 1016.15 1016.11 1016.11 1016.19 1016.27 1016.27 1016.31 1016.31 1016.31
1006.99 1007.15 1007.51 1007.83 1008.15 1008.59 1008.83 1008.91 1009.23 1009.71 1010.23 1010.67 1010.91 1011.15 1011.27 1011.43 1011.79 1012.27 1012.63 1013.03 1013.31 1013.43 1013.67 1014.03 1014.47 1014.83 1014.95 1014.95 1015.15 1015.43 1015.71 1015.87 1015.83 1015.83 1015.91 1015.95 1015.95 1015.91 1015.83 1015.83 1015.75 1015.71
1006.63 1006.95 1007.35 1007.83 1008.19 1008.55 1008.79 1008.91 1009.27 1009.99 1010.87 1011.03 1010.83 1010.75 1010.67 1010.83 1011.07 1011.59 1012.23 1012.79 1013.11 1013.27 1013.39 1013.59 1013.99 1014.31 1014.51 1014.71 1014.87 1015.03 1015.19 1015.39 1015.47 1015.59 1015.67 1015.71 1015.63 1015.55 1015.47 1015.47 1015.39 1015.31
1006.39 1006.71 1007.07 1007.51 1008.11 1008.51 1008.55 1009.03 1009.59 1010.03 1010.23 1010.27 1010.23 1010.31 1010.47 1010.63 1010.91 1011.31 1011.83 1012.35 1012.95 1013.31 1013.47 1013.59 1013.79 1013.91 1014.19 1014.67 1014.79 1014.67 1014.87 1015.15 1015.23 1015.23 1015.23 1015.19 1015.27 1015.27 1015.19 1015.07 1015.03 1014.99
1006.31 1006.59 1006.95 1007.39 1007.79 1008.27 1008.35 1008.87 1009.27 1009.75 1009.83 1009.59 1009.71 1009.91 1010.11 1010.43 1010.75 1011.27 1011.67 1012.15 1012.75 1013.27 1013.55 1013.59 1013.63 1013.63 1013.87 1014.23 1014.71 1014.79 1014.87 1014.99 1014.99 1014.83 1014.75 1014.79 1014.83 1014.99 1015.07 1014.95 1014.71 1014.67
1006.11 1006.47 1006.91 1007.27 1007.67 1007.95 1008.07 1008.43 1008.75 1009.35 1009.51 1009.39 1009.43 1009.75 1010.03 1010.31 1011.03 1011.83 1012.15 1012.23 1012.59 1012.83 1013.07 1013.27 1013.39 1013.43 1013.83 1014.15 1014.47 1014.67 1014.91 1014.91 1014.67 1014.43 1014.31 1014.39 1014.51 1014.63 1014.67 1014.63 1014.55 1014.43
1005.75 1006.19 1006.59 1007.07 1007.39 1007.55 1007.67 1008.15 1008.47 1008.91 1009.23 1009.47 1009.63 1009.55 1009.79 1010.51 1010.95 1011.51 1011.91 1011.99 1012.31 1012.63 1012.79 1012.91 1013.07 1013.35 1013.87 1014.07 1014.23 1014.39 1014.51 1014.71 1014.35 1013.95 1013.91 1014.03 1014.11 1014.23 1014.27 1014.31 1014.39 1014.55
1005.47 1005.91 1006.31 1006.75 1007.11 1007.39 1007.71 1008.07 1008.27 1008.59 1008.75 1009.07 1009.39 1009.79 1010.15 1010.43 1010.95 1011.35 1011.63 1011.99 1012.19 1012.39 1012.59 1012.67 1012.83 1013.15 1013.63 1013.79 1013.87 1013.91 1014.03 1014.31 1014.07 1013.75 1013.63 1013.67 1013.79 1013.83 1013.91 1014.11 1014.31 1014.43
1005.31 1005.67 1006.11 1006.51 1006.99 1007.39 1007.63 1007.91 1008.15 1008.35 1008.71 1009.03 1009.39 1009.79 1010.07 1010.51 1010.91 1011.19 1011.47 1011.79 1011.99 1012.11 1012.39 1012.63 1012.71 1012.95 1013.23 1013.27 1013.31 1013.43 1013.59 1013.99 1013.83 1013.71 1013.51 1013.47 1013.51 1013.63 1013.83 1013.95 1014.07 1014.19
1005.15 1005.51 1005.91 1006.35 1006.91 1007.23 1007.55 1007.87 1008.11 1008.35 1008.63 1009.11 1009.71 1009.99 1010.03 1010.31 1010.71 1010.87 1011.27 1011.55 1011.79 1011.95 1012.07 1012.31 1012.19 1012.43 1012.59 1012.75 1012.87 1013.07 1013.39 1013.71 1013.67 1013.71 1013.55 1013.43 1013.47 1013.59 1013.75 1013.83 1013.95 1014.11
1004.95 1005.35 1005.71 1006.23 1006.67 1007.19 1007.59 1007.87 1008.19 1008.43 1008.67 1009.11 1009.71 1009.79 1010.07 1010.43 1010.67 1010.87 1010.99 1011.27 1011.51 1011.75 1011.99 1011.83 1011.63 1011.71 1012.03 1012.27 1012.47 1012.75 1013.31 1013.31 1013.39 1013.31 1013.31 1013.35 1013.43 1013.51 1013.75 1014.11 1014.43 1014.35
1004.79 1005.11 1005.63 1006.15 1006.59 1007.07 1007.43 1007.67 1007.91 1008.23 1008.59 1008.95 1009.23 1009.51 1009.95 1010.15 1010.39 1010.71 1010.87 1011.07 1011.31 1011.47 1011.23 1011.27 1011.15 1011.23 1011.63 1011.87 1012.07 1012.51 1012.67 1012.79 1012.91 1012.95 1013.11 1013.27 1013.39 1013.59 1013.83 1014.07 1014.19 1014.43
1004.59 1004.95 1005.35 1005.87 1006.43 1006.75 1007.15 1007.47 1007.75 1008.11 1008.39 1008.87 1009.11 1009.39 1009.71 1009.91 1010.15 1010.47 1010.55 1010.51 1010.39 1010.39 1010.47 1010.71 1010.63 1010.79 1011.19 1011.47 1011.87 1012.23 1012.47 1012.43 1012.47 1012.59 1012.99 1013.31 1013.71 1013.95 1013.99 1014.19 1014.31 1014.31
1004.43 1004.83 1005.23 1005.63 1006.11 1006.55 1006.87 1007.19 1007.51 1007.95 1008.39 1008.87 1009.07 1009.19 1009.47 1009.63 1009.75 1009.95 1010.15 1010.07 1009.95 1009.95 1009.99 1010.15 1010.39 1010.43 1010.83 1011.27 1011.59 1012.07 1012.35 1012.23 1012.15 1012.67 1013.11 1013.43 1013.47 1013.67 1013.95 1013.95 1013.99 1013.87
Wind_Speed
12 11 11 11 11 10 10 10 9 9 9 8 7 7 8 8 8 9 8 7 7 7 6 6 5 5 4 4 3 3 2 3 3 2 3 2 2 2 3 3 4 4
14 13 10 10 10 10 9 10 10 9 8 8 7 7 7 8 9 9 8 7 7 7 6 6 6 5 5 5 4 4 4 4 4 3 3 4 3 4 4 5 6 5
14 13 13 12 11 12 12 10 9 9 8 9 9 8 8 9 9 9 8 8 7 7 7 7 7 6 6 5 4 5 5 5 4 4 4 4 4 4 5 5 5 6
14 14 13 13 12 12 11 9 9 9 9 9 10 9 8 8 8 9 9 9 7 7 6 7 7 7 7 5 5 5 5 5 4 4 4 4 5 5 5 5 6 6
15 14 13 12 12 11 11 11 12 11 11 9 9 9 8 8 8 9 8 8 7 7 7 7 7 6 4 4 5 5 4 4 5 5 5 5 5 5 5 5 5 6
13 13 13 12 12 12 11 12 12 11 10 10 10 10 9 10 9 9 9 10 9 7 6 7 7 6 6 5 5 5 5 5 5 6 6 6 6 5 5 5 6 6
14 14 15 13 14 14 13 12 11 11 12 11 10 11 11 11 10 9 10 11 10 9 9 8 8 7 6 6 6 7 7 7 6 6 6 6 6 7 6 6 6 7
16 14 14 13 14 14 13 12 12 12 11 11 12 11 10 11 11 11 11 9 8 9 10 9 8 8 8 7 8 8 8 6 6 7 7 7 7 7 7 7 7 8
14 14 14 15 15 13 14 13 12 11 11 12 11 10 11 11 13 13 12 12 11 11 10 10 10 9 8 8 8 9 9 8 7 7 7 8 8 8 8 8 9 9
15 14 16 16 16 14 15 15 14 13 13 13 13 12 12 11 12 13 11 12 13 12 11 10 10 10 9 8 8 9 9 9 8 8 8 9 9 9 9 8 9 9
16 16 16 17 17 15 17 17 16 15 13 14 14 13 14 13 12 12 12 13 12 12 11 11 10 10 9 9 8 8 9 9 9 9 9 9 9 9 9 9 9 9
17 16 17 18 17 16 17 17 16 15 15 15 16 15 14 14 13 12 12 13 13 12 12 10 9 9 9 10 10 9 9 9 8 9 9 9 9 9 9 9 9 10
16 16 16 16 15 14 14 16 17 16 16 15 15 16 16 15 14 14 12 11 12 12 11 11 11 9 7 7 8 9 9 8 8 9 10 9 8 10 10 11 11 10
15 14 14 13 12 13 14 15 15 14 14 13 13 16 17 18 17 16 13 11 11 11 12 11 10 8 8 8 8 9 10 10 10 9 9 9 10 10 11 11 11 10
12 12 11 12 13 12 13 14 14 11 9 9 12 13 14 16 16 14 11 10 10 11 11 10 9 8 6 7 9 10 10 10 10 9 9 10 10 11 11 11 10 10
12 11 12 13 13 14 14 13 11 12 12 11 11 13 12 12 12 12 13 12 11 10 9 8 8 6 7 9 9 8 9 8 8 9 10 10 10 10 11 11 11 10
12 12 13 13 13 14 15 14 13 13 14 15 14 12 13 12 11 13 12 11 10 9 9 8 7 6 11 13 12 10 7 8 9 10 9 9 10 10 10 10 10 10
12 12 12 13 14 15 15 15 14 16 16 15 12 12 11 11 10 7 8 10 10 11 11 8 7 8 10 12 12 12 10 9 10 10 8 9 9 10 9 9 9 9
12 12 12 12 13 14 14 14 14 15 15 13 13 12 12 11 12 11 11 10 9 9 9 9 8 10 14 14 12 13 13 11 9 10 9 9 9 9 10 9 8 7
12 11 11 11 10 11 12 13 13 16 15 12 10 11 10 11 11 12 11 10 9 9 8 8 8 9 14 14 13 13 13 11 9 11 10 9 10 10 9 8 8 7
11 10 10 10 10 11 13 14 15 13 13 11 9 13 13 10 10 11 11 11 10 9 8 8 8 11 14 15 14 14 13 10 9 9 9 9 9 10 9 8 7 6
9 10 10 9 11 12 12 14 14 13 13 11 11 11 9 8 8 9 10 9 9 9 10 11 12 16 15 15 14 13 11 7 8 9 10 10 9 8 7 6 5 4
9 10 9 10 11 11 12 13 13 13 13 11 12 9 9 9 9 8 6 8 9 10 12 12 12 12 15 15 14 13 10 8 9 9 9 10 8 6 2 2 2 3
8 9 8 9 9 11 13 12 12 12 12 12 12 11 11 11 10 9 9 10 11 14 15 14 14 12 15 14 14 14 13 10 9 9 8 7 6 4 2 2 1 1
7 8 8 9 10 10 11 11 11 12 13 11 9 9 9 9 9 9 10 11 14 16 13 14 12 8 13 15 14 15 13 9 8 8 7 4 3 1 1 1 2 4
6 7 8 8 9 9 9 9 8 10 12 12 11 9 9 10 10 10 13 13 13 13 12 13 11 9 10 14 14 14 14 9 8 6 6 6 5 5 4 5 6 7
Wind_Direction
205 206 208 211 219 224 221 216 215 212 211 215 218 214 210 198 192 192 196 198 201 206 199 202 202 202 203 213 214 221 233 238 243 223 219 232 253 264 267 272 273 268
205 204 204 209 214 214 215 208 212 206 203 205 209 204 194 189 191 192 195 199 202 207 202 201 204 208 212 219 210 221 225 224 232 216 230 227 243 248 250 260 268 270
202 201 200 202 206 206 204 197 204 200 203 203 201 198 190 189 190 191 194 200 201 203 201 200 198 202 211 222 225 223 220 227 235 237 231 241 249 254 261 263 262 257
201 200 199 200 199 196 192 192 194 197 203 201 200 196 192 190 191 190 194 199 200 199 201 204 201 197 200 214 222 230 229 233 238 242 247 244 243 253 256 255 254 265
198 199 200 199 198 193 189 192 198 196 199 198 195 190 189 187 186 189 191 192 202 200 198 201 201 201 195 201 209 225 232 229 224 230 240 244 246 245 252 255 258 262
194 195 194 195 192 189 191 195 198 195 188 190 190 184 183 179 184 189 190 197 193 198 193 196 195 206 201 199 200 216 225 225 222 222 233 244 251 249 249 252 260 262
191 192 193 191 191 190 193 195 191 185 187 190 179 184 181 180 182 186 197 201 190 176 185 193 191 195 202 187 201 216 218 222 228 230 236 246 250 256 258 261 261 262
193 190 189 191 192 190 195 187 187 187 182 178 182 182 174 176 179 185 200 196 187 189 187 184 180 180 198 197 203 214 219 216 218 225 237 244 252 257 259 261 259 260
191 190 189 191 191 191 188 187 194 185 178 178 183 175 171 178 182 190 193 186 195 203 189 177 170 178 190 208 211 210 215 216 216 224 234 246 249 253 259 262 262 260
191 191 191 193 195 192 187 192 194 183 179 183 181 175 176 181 189 188 189 190 203 204 193 185 179 176 183 204 217 216 213 214 220 227 236 243 251 260 262 259 259 257
190 191 193 196 198 195 191 192 194 189 180 182 182 183 183 185 188 188 186 194 203 205 200 191 188 183 183 193 207 219 220 217 220 227 235 241 250 257 257 255 256 252
192 194 197 199 198 196 190 189 192 189 180 181 181 180 181 185 185 188 190 198 201 202 200 197 191 190 187 190 207 216 220 222 222 229 235 243 249 250 249 246 245 244
194 197 198 200 197 193 190 189 195 189 182 181 181 184 185 189 188 190 194 198 196 191 190 196 197 193 188 192 209 217 222 224 225 230 238 245 247 248 245 241 241 243
198 198 200 199 195 191 194 195 191 184 178 175 182 187 190 190 188 190 191 193 192 185 188 190 187 181 187 194 203 219 225 228 231 234 239 242 245 246 243 243 243 246
195 201 200 209 206 194 193 190 183 152 133 169 190 194 195 192 190 185 182 185 188 189 185 182 180 185 189 201 209 217 225 233 237 233 228 241 246 243 239 242 247 251
205 196 208 210 206 198 194 189 153 131 166 196 193 193 189 184 183 183 190 187 187 188 183 178 183 183 193 215 230 224 223 226 237 233 236 241 241 241 241 239 240 246
213 208 207 200 202 204 200 184 153 155 187 205 197 193 185 186 188 188 192 186 177 186 191 190 186 183 187 203 209 226 237 241 244 242 239 241 239 239 243 244 245 245
212 207 205 206 203 203 204 196 169 174 194 207 194 181 185 183 178 169 164 161 183 202 204 197 191 182 197 204 202 210 217 235 247 245 241 240 239 240 240 243 247 255
212 209 205 204 207 206 204 192 178 181 193 204 209 195 182 183 179 181 180 182 192 201 207 204 207 179 203 209 202 206 211 222 244 245 241 241 241 237 241 246 251 255
199 202 205 201 198 203 198 190 180 187 191 197 198 201 191 174 171 177 181 194 204 207 213 223 224 194 202 203 204 208 213 210 241 241 239 242 243 244 245 249 249 253
194 194 208 191 178 191 198 201 201 188 187 187 193 205 192 177 173 177 185 196 205 212 211 217 222 215 198 197 200 206 211 208 237 238 243 242 245 249 251 251 251 250
186 192 204 176 181 199 199 204 205 193 186 185 194 196 190 179 179 186 190 193 203 211 218 223 224 207 196 193 199 204 195 208 226 235 240 243 244 249 247 245 258 259
186 192 194 178 187 193 198 202 204 199 195 193 194 181 181 187 189 198 199 207 211 212 225 231 233 199 189 193 199 194 179 216 223 229 235 239 242 239 260 27 333 293
189 207 192 181 183 193 200 205 201 199 193 192 188 177 183 191 192 195 208 213 214 220 223 230 236 207 182 195 199 180 189 209 220 225 228 229 220 184 154 161 127 214
191 199 199 188 189 196 197 205 198 193 191 188 179 172 176 185 188 200 213 220 225 229 225 230 234 212 183 195 190 182 192 213 222 227 219 196 135 146 209 58 313 246
185 193 199 198 188 189 193 197 189 191 188 188 186 185 191 199 199 206 216 225 230 231 224 222 227 235 177 185 186 183 190 209 216 199 183 154 154 165 204 211 226 246